Weather Service Report


186 
ASUS43 KIND 310959
RWRIN 

WEATHER ROUNDUP FOR INDIANA
NATIONAL WEATHER SERVICE INDIANAPOLIS IN
600 AM EDT TUE MAR 31 2015

NOTE: "FAIR" INDICATES FEW OR NO CLOUDS BELOW 12,000 FEET WITH NO
SIGNIFICANT WEATHER AND/OR OBSTRUCTIONS TO VISIBILITY.

* - STATION DOES NOT REPORT WEATHER SUCH AS PRECIPITATION OR FOG.

+ - STATION NOT QUALITY CONTROLLED BY THE NATIONAL WEATHER SERVICE.
    USE DATA WITH CAUTION...ESPECIALLY DEWPOINT AND RELATIVE
    HUMIDITY OBSERVATIONS.

INZ001>003-010>013-019-020-311100-
NORTHWEST INDIANA
  
CITY           SKY/WX    TMP DP  RH WIND       PRES   REMARKS

$$

LMZ046-743>745-311100-
SOUTHERN LAKE MICHIGAN
  
STATION/POSITION TIME  TEMP WIND        PRES
                       AIR  DIR/SP/G
                 (UTC) (F)  (DEG/KT/KT) (MB)
BURNS HARBOR     0900   47  250/ 14/ 16 1006.1F
MICHIGAN CITY    0900       210/ 12/ 15   N/A

$$

INZ004-005-014>016-021>024-311100-
NORTH CENTRAL INDIANA
  
CITY           SKY/WX    TMP DP  RH WIND       PRES   REMARKS
GOSHEN         MOCLDY    45  35  68 SW8       29.68F                  
SOUTH BEND     PTCLDY    43  34  70 W9        29.69F                  

$$

INZ006>009-017-018-025>027-311100-
NORTHEAST INDIANA
  
CITY           SKY/WX    TMP DP  RH WIND       PRES   REMARKS
ANGOLA *+      MOCLDY    46  36  66 SW3       29.68S                  
FORT WAYNE     PTCLDY    47  35  63 SW21      29.70S                  

$$

INZ028-029-035-036-043>045-051>053-311100-
WEST CENTRAL INDIANA
  
CITY           SKY/WX    TMP DP  RH WIND       PRES   REMARKS
CRAWFORDSVL +  CLEAR     43  31  61 SW10      29.78F                  
GREENCASTLE +  CLEAR     46  32  57 SW5       29.82F                  
LAFAYETTE      CLEAR     48  35  60 SW13      29.76S                  
TERRE HAUTE    MOCLDY    50  37  61 SW15      29.83F                  

$$

INZ030>032-037>040-046>048-054>057-064-065-311100-
CENTRAL INDIANA
  
CITY           SKY/WX    TMP DP  RH WIND       PRES   REMARKS
GREENWOOD *+   MOCLDY    52  30  43 SW13G21   29.82F                  
INDIANAPOLIS   PTCLDY    50  33  52 SW17      29.79F                  
-EAGLE CREEK   PTCLDY    50  33  52 SW10G18   29.79F                  
KOKOMO *+        N/A     48  36  61 SW20      29.74S                  
MT COMFORT *+  CLEAR     48  23  37 SW10      29.80F                  
SHELBYVILLE    CLOUDY    47  32  56 S9        29.82F                  

$$

INZ033-034-041-042-049-050-058-059-311100-
EAST CENTRAL INDIANA
  
CITY           SKY/WX    TMP DP  RH WIND       PRES   REMARKS
MUNCIE         PTCLDY    49  31  49 SW15G23   29.75F                  

$$

INZ060-061-067>069-081>083-085>088-311100-
SOUTHWEST INDIANA
  
CITY           SKY/WX    TMP DP  RH WIND       PRES   REMARKS
EVANSVILLE     PTCLDY    46  35  65 SW7       29.92F                  
HUNTINGBURG *+ CLEAR     46  30  53 SW9       29.91F                  

$$

INZ062-063-066-070>080-084-089>092-311100-
SOUTH CENTRAL AND SOUTHEAST INDIANA
  
CITY           SKY/WX    TMP DP  RH WIND       PRES   REMARKS
BLOOMINGTON    CLEAR     52  33  48 W15G25    29.85F                  
SEYMOUR +      CLEAR     54  32  43 SW14G23   29.86F                  

$$


Return to Home page


Western Regional Climate Center, wrcc@dri.edu